This is the latest recevied weather packets stored in our database for station/object N4ZIQ. If no packets are shown the sender has not sent any weather packets the latest 10 day(s).
| Time | Temp. | Humidity | Pressure | Rain* | Wind** | Luminosity | Snow |
|---|---|---|---|---|---|---|---|
| 1778219158 | 19.44° C | 87% | 1014.2 hPa | 0 mm | - | 0 W/m² | - |
| 1778218848 | 20° C | 87% | 1014.3 hPa | 0 mm | - | 0 W/m² | - |
| 1778218549 | 20° C | 86% | 1014.4 hPa | 0 mm | - | 0 W/m² | - |
| 1778218255 | 20.56° C | 86% | 1014.5 hPa | 0 mm | - | 0 W/m² | - |
| 1778217948 | 20.56° C | 86% | 1014.5 hPa | 0 mm | - | 0 W/m² | - |
| 1778217648 | 20.56° C | 84% | 1014.4 hPa | 0 mm | - | 0 W/m² | - |
| 1778217356 | 20.56° C | 83% | 1014.4 hPa | 0 mm | - | 0 W/m² | - |
| 1778217045 | 21.67° C | 82% | 1014.4 hPa | 0 mm | - | 0 W/m² | - |
| 1778216745 | 22.22° C | 80% | 1014.5 hPa | 0 mm | - | 0 W/m² | - |
| 1778216457 | 22.22° C | 80% | 1014.5 hPa | 0 mm | - | 0 W/m² | - |
| 1778216147 | 22.78° C | 78% | 1014.5 hPa | 0 mm | - | 0 W/m² | - |
| 1778215844 | 23.33° C | 78% | 1014.5 hPa | 0 mm | - | 0 W/m² | - |
| 1778215553 | 23.33° C | 77% | 1014.5 hPa | 0 mm | - | 0 W/m² | - |
| 1778215245 | 23.33° C | 76% | 1014.6 hPa | 0 mm | - | 0 W/m² | - |
| 1778214944 | 23.89° C | 76% | 1014.6 hPa | 0 mm | - | 0 W/m² | - |
| 1778214659 | 23.89° C | 76% | 1014.6 hPa | 0 mm | - | 0 W/m² | - |
| 1778214348 | 23.89° C | 75% | 1014.6 hPa | 0 mm | - | 0 W/m² | - |
| 1778214048 | 23.89° C | 75% | 1014.5 hPa | 0 mm | - | 0 W/m² | - |
| 1778213758 | 23.89° C | 75% | 1014.5 hPa | 0 mm | - | 0 W/m² | - |
| 1778213449 | 23.33° C | 75% | 1014.4 hPa | 0 mm | - | 0 W/m² | - |
| 1778213145 | 23.33° C | 77% | 1014.3 hPa | 0 mm | - | 0 W/m² | - |
| 1778212857 | 22.22° C | 78% | 1014.4 hPa | 0 mm | - | 0 W/m² | - |
| 1778212544 | 21.67° C | 76% | 1014.4 hPa | 0 mm | - | 0 W/m² | - |
| 1778212246 | 21.67° C | 77% | 1014.3 hPa | 0 mm | - | 0 W/m² | - |
| 1778211958 | 22.22° C | 72% | 1014.4 hPa | 0 mm | - | 0 W/m² | - |
* Rain latest hour (hover to see other rain measurements)
** Current wind speed in m/s (hover to see current wind gust speed)